Radiation Dose at Monitoring Post of Fukushima Daini Nuclear Power Station
Date,Time,MP-1(microSv/h),MP-2(microSv/h),MP-3(microSv/h),MP-4(microSv/h),MP-5(microSv/h),MP-6(microSv/h),MP-7(microSv/h),Wind Direction,Wind Velocity(m/s),Rain
2014/11/10,00:00,0.609,0.404,0.639,0.579,0.581,0.265,0.232,-,CALM,Yes
2014/11/10,00:10,0.608,0.404,0.640,0.580,0.582,0.266,0.232,south-southwest,0.8,Yes
2014/11/10,00:20,0.608,0.403,0.639,0.579,0.581,0.265,0.231,south-southwest,1.8,Yes
2014/11/10,00:30,0.607,0.403,0.637,0.578,0.580,0.267,0.231,southwest,2.5,Yes
2014/11/10,00:40,0.607,0.403,0.637,0.579,0.578,0.265,0.232,west-southwest,3.4,Yes
2014/11/10,00:50,0.606,0.403,0.637,0.578,0.579,0.267,0.231,west-southwest,3.2,Yes
2014/11/10,01:00,0.606,0.405,0.637,0.577,0.579,0.265,0.231,south-southwest,2.3,Yes
2014/11/10,01:10,0.608,0.403,0.635,0.576,0.581,0.265,0.232,south,1.6,Yes
2014/11/10,01:20,0.606,0.402,0.637,0.576,0.580,0.266,0.232,south-southeast,2.5,No
2014/11/10,01:30,0.607,0.402,0.638,0.576,0.581,0.265,0.231,south-southeast,2.5,No
2014/11/10,01:40,0.607,0.403,0.637,0.576,0.580,0.266,0.231,south-southeast,1.7,No
2014/11/10,01:50,0.606,0.402,0.636,0.577,0.583,0.265,0.231,south,1.9,No
2014/11/10,02:00,0.606,0.402,0.636,0.576,0.580,0.266,0.231,south-southwest,1.1,No
2014/11/10,02:10,0.609,0.403,0.639,0.576,0.578,0.265,0.231,south-southwest,1.0,No
2014/11/10,02:20,0.606,0.402,0.636,0.575,0.581,0.266,0.231,west-southwest,2.4,No
2014/11/10,02:30,0.606,0.402,0.637,0.575,0.579,0.266,0.229,west,4.5,No
2014/11/10,02:40,0.607,0.402,0.638,0.576,0.580,0.265,0.230,west,6.5,No
2014/11/10,02:50,0.607,0.402,0.637,0.577,0.581,0.264,0.230,west-northwest,6.6,No
2014/11/10,03:00,0.605,0.402,0.637,0.576,0.580,0.265,0.229,west-northwest,6.9,No
2014/11/10,03:10,0.605,0.403,0.637,0.577,0.580,0.263,0.230,west-northwest,5.6,No
2014/11/10,03:20,0.606,0.403,0.637,0.577,0.580,0.264,0.230,northwest,4.1,No
2014/11/10,03:30,0.607,0.402,0.638,0.577,0.580,0.263,0.230,northwest,4.2,No
2014/11/10,03:40,0.606,0.403,0.637,0.576,0.580,0.265,0.231,north-northwest,4.6,No
2014/11/10,03:50,0.607,0.402,0.637,0.576,0.581,0.265,0.230,north-northwest,5.6,No
2014/11/10,04:00,0.607,0.403,0.638,0.577,0.582,0.264,0.230,northwest,5.8,No
2014/11/10,04:10,0.607,0.402,0.637,0.576,0.582,0.264,0.229,northwest,6.1,No
2014/11/10,04:20,0.607,0.403,0.638,0.577,0.580,0.265,0.231,north-northwest,5.5,No
2014/11/10,04:30,0.607,0.402,0.637,0.576,0.580,0.264,0.230,north-northwest,5.0,No
2014/11/10,04:40,0.607,0.403,0.637,0.577,0.579,0.263,0.230,northwest,4.2,No
2014/11/10,04:50,0.607,0.403,0.637,0.577,0.581,0.265,0.229,northwest,4.7,No
2014/11/10,05:00,0.608,0.402,0.637,0.577,0.580,0.264,0.230,north-northwest,4.2,No
2014/11/10,05:10,0.608,0.403,0.637,0.578,0.581,0.263,0.230,northwest,4.2,No
2014/11/10,05:20,0.608,0.403,0.638,0.576,0.581,0.266,0.230,north-northwest,5.3,No
2014/11/10,05:30,0.608,0.402,0.636,0.579,0.580,0.263,0.229,north-northwest,5.6,No
2014/11/10,05:40,0.609,0.403,0.638,0.578,0.581,0.265,0.229,north-northwest,6.5,No
2014/11/10,05:50,0.610,0.403,0.638,0.576,0.580,0.263,0.230,northwest,7.8,No
2014/11/10,06:00,0.609,0.402,0.638,0.576,0.580,0.264,0.230,northwest,6.1,No
2014/11/10,06:10,0.608,0.403,0.638,0.577,0.580,0.265,0.230,north-northwest,5.2,No
2014/11/10,06:20,0.610,0.403,0.641,0.576,0.582,0.264,0.229,north-northwest,6.1,No
2014/11/10,06:30,0.610,0.403,0.640,0.576,0.581,0.263,0.230,north-northwest,5.8,No
2014/11/10,06:40,0.609,0.403,0.638,0.578,0.583,0.265,0.229,north-northwest,6.4,No
2014/11/10,06:50,0.610,0.404,0.639,0.577,0.581,0.264,0.229,north-northwest,7.2,No
2014/11/10,07:00,0.608,0.403,0.637,0.577,0.582,0.264,0.229,north-northwest,5.9,No
2014/11/10,07:10,0.609,0.404,0.639,0.578,0.582,0.264,0.230,north-northwest,4.6,No
2014/11/10,07:20,0.610,0.403,0.639,0.578,0.582,0.263,0.230,north,4.7,No
2014/11/10,07:30,0.612,0.405,0.637,0.577,0.581,0.265,0.229,north,5.3,No
2014/11/10,07:40,0.612,0.403,0.640,0.577,0.582,0.265,0.231,north,4.4,No
2014/11/10,07:50,0.609,0.404,0.639,0.577,0.581,0.265,0.230,north,4.7,No
2014/11/10,08:00,0.609,0.401,0.639,0.580,0.582,0.265,0.232,north,4.7,No
2014/11/10,08:10,0.611,0.397,0.640,0.579,0.582,0.265,0.230,north,5.6,No
2014/11/10,08:20,0.611,0.398,0.641,0.579,0.583,0.264,0.230,north-northwest,6.5,No
2014/11/10,08:30,0.612,0.398,0.641,0.579,0.581,0.263,0.231,north-northwest,7.0,No
2014/11/10,08:40,0.609,0.397,0.641,0.578,0.580,0.265,0.230,northwest,6.4,Yes
2014/11/10,08:50,0.613,0.397,0.641,0.581,0.583,0.265,0.231,northwest,8.8,No
2014/11/10,09:00,0.611,0.397,0.641,0.582,0.582,0.264,0.229,northwest,9.2,No
2014/11/10,09:10,0.611,0.396,0.640,0.582,0.584,0.265,0.230,north-northwest,7.5,No
2014/11/10,09:20,0.612,0.399,0.643,0.583,0.583,0.265,0.232,north-northwest,8.2,Yes
2014/11/10,09:30,0.613,0.397,0.642,0.583,0.585,0.267,0.230,northwest,8.9,No
2014/11/10,09:40,0.614,0.397,0.642,0.584,0.585,0.266,0.231,northwest,8.3,No
2014/11/10,09:50,0.612,0.397,0.642,0.584,0.583,0.268,0.233,northwest,6.5,No
2014/11/10,10:00,0.612,0.398,0.642,0.585,0.582,0.265,0.233,west-northwest,6.3,No
2014/11/10,10:10,0.613,0.400,0.642,0.587,0.583,0.267,0.229,northwest,7.5,No
2014/11/10,10:20,0.616,0.400,0.643,0.588,0.587,0.266,0.232,west-northwest,7.2,No
2014/11/10,10:30,0.618,0.398,0.643,0.587,0.584,0.266,0.232,west-northwest,9.4,No
2014/11/10,10:40,0.617,0.402,0.643,0.591,0.587,0.268,0.232,northwest,9.1,No
2014/11/10,10:50,0.616,0.400,0.643,0.591,0.586,0.267,0.234,northwest,8.1,No
2014/11/10,11:00,0.616,0.400,0.643,0.592,0.587,0.267,0.233,west-northwest,6.9,No
2014/11/10,11:10,0.616,0.401,0.644,0.594,0.588,0.266,0.233,west-northwest,8.6,No
2014/11/10,11:20,0.618,0.402,0.646,0.593,0.587,0.266,0.232,northwest,9.2,No
2014/11/10,11:30,0.618,0.408,0.645,0.596,0.589,0.268,0.233,west-northwest,8.7,No
2014/11/10,11:40,0.618,0.409,0.644,0.597,0.588,0.266,0.232,west-northwest,9.3,No
2014/11/10,11:50,0.622,0.398,0.645,0.596,0.589,0.267,0.232,northwest,8.1,No
2014/11/10,12:00,0.623,0.401,0.646,0.596,0.588,0.266,0.233,west-northwest,5.4,No
2014/11/10,12:10,0.619,0.397,0.645,0.596,0.589,0.267,0.234,west-northwest,7.3,No
2014/11/10,12:20,0.623,0.397,0.648,0.597,0.589,0.268,0.231,west-northwest,6.3,No
2014/11/10,12:30,0.625,0.395,0.649,0.598,0.588,0.267,0.233,west-northwest,5.3,No
2014/11/10,12:40,0.624,0.393,0.648,0.597,0.589,0.268,0.233,northwest,5.3,No
2014/11/10,12:50,0.623,0.395,0.648,0.597,0.590,0.266,0.234,northwest,6.1,No
2014/11/10,13:00,0.622,0.394,0.651,0.599,0.591,0.267,0.232,northwest,7.9,No
2014/11/10,13:10,0.622,0.397,0.649,0.600,0.591,0.268,0.235,west-northwest,5.0,No
2014/11/10,13:20,0.620,0.394,0.651,0.600,0.588,0.268,0.234,west-northwest,4.2,No
2014/11/10,13:30,0.621,0.394,0.652,0.601,0.586,0.268,0.233,northwest,5.0,No
2014/11/10,13:40,0.624,0.395,0.652,0.602,0.588,0.267,0.233,west-northwest,4.0,No
2014/11/10,13:50,0.620,0.394,0.651,0.600,0.587,0.267,0.235,northwest,3.8,No
2014/11/10,14:00,0.622,0.395,0.651,0.597,0.588,0.269,0.233,west-northwest,3.8,No
2014/11/10,14:10,0.620,0.394,0.650,0.598,0.588,0.267,0.235,west-northwest,5.0,No
2014/11/10,14:20,0.618,0.393,0.649,0.599,0.588,0.268,0.233,west,4.0,No
2014/11/10,14:30,0.619,0.393,0.649,0.600,0.587,0.268,0.236,west-northwest,3.6,No
2014/11/10,14:40,0.619,0.393,0.648,0.599,0.586,0.268,0.235,west-northwest,4.2,No
2014/11/10,14:50,0.618,0.394,0.648,0.596,0.586,0.267,0.234,northwest,3.8,No
2014/11/10,15:00,0.616,0.393,0.647,0.593,0.583,0.268,0.236,north-northwest,1.7,No
2014/11/10,15:10,0.617,0.391,0.647,0.595,0.586,0.268,0.235,north,1.1,No
2014/11/10,15:20,0.617,0.391,0.648,0.593,0.585,0.268,0.234,north,0.8,No
2014/11/10,15:30,0.613,0.390,0.646,0.591,0.586,0.269,0.235,north-northwest,1.1,No
2014/11/10,15:40,0.616,0.390,0.646,0.593,0.585,0.269,0.234,west-northwest,4.1,No
2014/11/10,15:50,0.613,0.390,0.647,0.592,0.585,0.268,0.235,west-northwest,6.1,No
2014/11/10,16:00,0.616,0.393,0.645,0.589,0.585,0.270,0.235,west-northwest,6.2,No
2014/11/10,16:10,0.616,0.391,0.644,0.590,0.584,0.267,0.235,west-northwest,5.0,No
2014/11/10,16:20,0.613,0.392,0.642,0.587,0.584,0.270,0.234,west-northwest,5.1,No
2014/11/10,16:30,0.613,0.390,0.643,0.586,0.583,0.268,0.235,west-northwest,4.5,No
2014/11/10,16:40,0.614,0.390,0.643,0.580,0.583,0.269,0.235,west-northwest,4.7,No
2014/11/10,16:50,0.615,0.389,0.642,0.585,0.581,0.269,0.235,west-northwest,4.4,No
2014/11/10,17:00,0.613,0.391,0.643,0.582,0.583,0.268,0.236,west-northwest,3.3,No
2014/11/10,17:10,0.614,0.390,0.644,0.580,0.582,0.269,0.234,north-northwest,2.5,No
2014/11/10,17:20,0.614,0.390,0.643,0.580,0.580,0.269,0.235,northwest,2.5,No
2014/11/10,17:30,0.615,0.389,0.644,0.580,0.582,0.270,0.234,northwest,3.6,No
2014/11/10,17:40,0.614,0.389,0.644,0.583,0.581,0.268,0.235,northwest,3.9,No
2014/11/10,17:50,0.616,0.389,0.645,0.583,0.583,0.268,0.235,northwest,3.8,No
2014/11/10,18:00,0.614,0.388,0.644,0.581,0.582,0.270,0.235,northwest,3.8,No
2014/11/10,18:10,0.614,0.389,0.643,0.583,0.582,0.269,0.235,north-northwest,3.3,No
2014/11/10,18:20,0.616,0.388,0.645,0.582,0.582,0.269,0.235,north-northwest,2.9,No
2014/11/10,18:30,0.615,0.389,0.645,0.582,0.583,0.269,0.235,north-northwest,4.6,No
2014/11/10,18:40,0.615,0.389,0.645,0.582,0.583,0.268,0.235,northwest,4.4,No
2014/11/10,18:50,0.616,0.388,0.645,0.582,0.584,0.269,0.235,northwest,5.6,No
2014/11/10,19:00,0.616,0.389,0.646,0.582,0.585,0.269,0.235,northwest,5.3,No
2014/11/10,19:10,0.615,0.389,0.645,0.583,0.583,0.269,0.235,north-northwest,5.0,No
2014/11/10,19:20,0.616,0.389,0.646,0.584,0.583,0.269,0.234,northwest,5.6,No
2014/11/10,19:30,0.616,0.389,0.646,0.583,0.584,0.269,0.235,north-northwest,5.2,No
2014/11/10,19:40,0.614,0.389,0.644,0.583,0.585,0.268,0.235,north-northwest,4.9,No
2014/11/10,19:50,0.615,0.389,0.646,0.584,0.584,0.270,0.235,northwest,4.0,No
2014/11/10,20:00,0.614,0.389,0.645,0.584,0.583,0.268,0.235,north-northwest,4.4,No
2014/11/10,20:10,0.616,0.390,0.646,0.584,0.584,0.269,0.237,northwest,4.0,No
2014/11/10,20:20,0.617,0.389,0.645,0.583,0.584,0.268,0.236,northwest,4.6,No
2014/11/10,20:30,0.616,0.389,0.646,0.584,0.583,0.268,0.235,north-northwest,3.1,No
2014/11/10,20:40,0.614,0.390,0.647,0.585,0.583,0.270,0.236,northwest,4.4,No
2014/11/10,20:50,0.614,0.389,0.644,0.583,0.584,0.269,0.236,north-northwest,3.8,No
2014/11/10,21:00,0.615,0.390,0.645,0.583,0.584,0.270,0.235,north-northwest,2.9,No
2014/11/10,21:10,0.616,0.391,0.645,0.585,0.583,0.270,0.235,north,2.9,No
2014/11/10,21:20,0.616,0.390,0.645,0.581,0.582,0.269,0.236,north,2.1,No
2014/11/10,21:30,0.615,0.389,0.646,0.584,0.583,0.269,0.235,north,3.1,No
2014/11/10,21:40,0.614,0.390,0.644,0.584,0.584,0.270,0.237,north-northwest,2.0,No
2014/11/10,21:50,0.616,0.390,0.645,0.585,0.584,0.269,0.235,north,3.8,No
2014/11/10,22:00,0.617,0.390,0.644,0.583,0.584,0.269,0.237,north,3.5,No
2014/11/10,22:10,0.616,0.391,0.645,0.586,0.583,0.270,0.235,north,4.4,No
2014/11/10,22:20,0.617,0.390,0.645,0.584,0.583,0.270,0.236,north-northwest,4.9,No
2014/11/10,22:30,0.616,0.390,0.646,0.583,0.583,0.269,0.237,north,4.8,No
2014/11/10,22:40,0.618,0.389,0.645,0.585,0.584,0.269,0.235,north,4.4,No
2014/11/10,22:50,0.617,0.391,0.645,0.585,0.585,0.269,0.237,north-northwest,3.4,No
2014/11/10,23:00,0.616,0.390,0.645,0.584,0.583,0.270,0.237,north-northwest,3.6,No
2014/11/10,23:10,0.616,0.389,0.645,0.583,0.585,0.269,0.235,north-northwest,4.3,No
2014/11/10,23:20,0.617,0.390,0.646,0.586,0.583,0.268,0.236,north,4.0,No
2014/11/10,23:30,0.614,0.389,0.646,0.584,0.585,0.269,0.235,north-northwest,5.0,No
2014/11/10,23:40,0.616,0.388,0.645,0.584,0.585,0.271,0.237,north-northwest,5.6,No
2014/11/10,23:50,0.616,0.390,0.646,0.583,0.585,0.270,0.236,north-northwest,6.4,No
